Regional Weather Roundup
Issued by NWS

Home | Current Version | Previous Version | Text Only | Print | Product List | Glossary On
Versions: 1 2 3 4 5 6 7 8 9 10 11 12 13 14 15 16 17 18 19 20 21 22 23 24 25 26 27 28
000
ASUS45 KTFX 280110
RWRMT
MONTANA REGIONAL WEATHER ROUNDUP
NATIONAL WEATHER SERVICE GREAT FALLS MT
700 PM MDT SAT AUG 27 2016

NOTE: "FAIR" INDICATES FEW OR NO CLOUDS BELOW 12000 FEET WITH NO
SIGNIFICANT WEATHER AND/OR OBSTRUCTIONS TO VISIBILITY.

MTZ001>007-043-280200-
WEST OF THE DIVIDE

CITY           SKY/WX    TMP DP  RH WIND       PRES   REMARKS
KALISPELL      CLOUDY    79  41  25 SW10      29.71S
MISSOULA       CLOUDY    82  38  20 W16       29.79R
BUTTE          CLOUDY    78  29  16 SW12      29.93S
MULLAN PASS    CLOUDY    62  36  37 SW8G22    29.96S
DEER LODGE       N/A     81  34  18 SW8       29.88S
EUREKA           N/A     77  41  27 CALM      29.72S
HAMILTON         N/A     82  39  21 W6        29.82R
LIBBY            N/A     81  39  22 W7        29.73R
PLAINS           N/A     81  43  26 W8        29.77R
RONAN            N/A     81  41  24 SW6       29.85R
$$

MTZ008-052>055-280200-
SOUTHWEST MONTANA

CITY           SKY/WX    TMP DP  RH WIND       PRES   REMARKS
BOZEMAN        CLOUDY    79  31  17 W7        29.86S
DILLON         CLOUDY    78  38  23 W5        29.91S
W YELLOWSTONE  CLOUDY    68  27  21 SW13      30.09S
ENNIS          SUNNY     77  27  15 SW17G24   29.99R
THREE FORKS      N/A     84  84 100 W7        29.85S HX 103
TWIN BRIDGES     N/A     80  36  20 SE5       29.91R
$$

MTZ009-010-012-014-046-048-049-054-280200-
EAST SLOPES AND CENTRAL MONTANA

CITY           SKY/WX    TMP DP  RH WIND       PRES   REMARKS
CUT BANK       CLOUDY    74  39  28 SW15G22   29.73S
GREAT FALLS    CLOUDY    76  38  25 S3        29.76S
MALMSTROM AFB  CLOUDY    78  40  25 MISG      29.75F
HELENA         CLOUDY    84  36  18 W10       29.80F
CHOTEAU          N/A     75  39  27 SE12      29.76F
$$

MTZ011-013-016-021-045-047-050-051-280200-
NORTH CENTRAL MONTANA

CITY           SKY/WX    TMP DP  RH WIND       PRES   REMARKS
HAVRE          CLOUDY    83  39  21 W13       29.67R
LEWISTOWN      CLOUDY    76  40  27 W7        29.83R
N BAR RANCH      N/A     77  32  19 NW8       29.87R
CHINOOK          N/A     81  45  28 S6        29.66S
$$

MTZ017>020-022>027-061-062-280200-
NORTHEAST MONTANA

CITY           SKY/WX    TMP DP  RH WIND       PRES   REMARKS
GLASGOW        CLOUDY    80  42  25 S9        29.72R
JORDAN           N/A     83  39  21 S6        29.74S
SIDNEY         CLEAR     76  53  44 S5        29.77S
WOLF POINT     CLEAR     81  48  31 W3        29.73R
POPLAR           N/A     82  43  24 S5        29.74S
SCOBEY           N/A     78  41  26 S3        29.77R
$$

MTZ028>42-056>058-280200-
SOUTHCENTRAL AND SOUTHEAST MONTANA

CITY           SKY/WX    TMP DP  RH WIND       PRES   REMARKS
BAKER          PTCLDY    78  44  29 S6        29.84F
BILLINGS       CLOUDY    81  36  19 SW7       29.81F
LIVINGSTON     CLOUDY    83  28  13 W15       29.85S
MILES CITY     CLEAR     83  35  18 SW7       29.79S
EKALAKA          N/A     78  41  26 SW1       29.87F
FORSYTH          N/A     82  37  20 SW3       29.78S
ROUNDUP          N/A     82  33  17 SW6       29.74R
$$

REGIONAL REPORTS...DAKOTAS

CITY           SKY/WX    TMP DP  RH WIND       PRES   REMARKS
WILLISTON      CLEAR     80  44  27 SE9       29.79S
MINOT          CLEAR     75  45  34 SE3       29.85S
DICKINSON      CLEAR     74  42  31 SE10      29.85R
CROSBY           N/A     75  43  31 SE8       29.82S
WATFORD CITY     N/A     77  45  31 SE9       29.81S
BISMARCK       CLEAR     72  56  57 SE7       29.88R
GRAND FORKS    PTCLDY    66  60  81 SE9       29.91R
FARGO          CLOUDY    70  57  63 SE6       29.95R
BUFFALO SD       N/A     78  48  34 SE12      29.81S
RAPID CITY     CLOUDY    76  53  44 S5        29.90R
$$

REGIONAL REPORTS...WYOMING/IDAHO/WASHINGTON

CITY           SKY/WX    TMP DP  RH WIND       PRES   REMARKS
GILLETTE       CLOUDY    80  36  20 N13       29.91R
SHERIDAN       CLEAR     80  36  20 SE3       29.88S
BUFFALO WY     CLOUDY    75  34  22 CALM      29.97R
CODY           CLEAR     77  30  18 S8        29.94R
YELLOWSTONE LA   N/A     63  22  20 VRB6      30.20R
IDAHO FALLS    SUNNY     78  31  17 S13       29.98S
SALMON         SUNNY     79  43  27 SW8       29.81R
BOISE          SUNNY     90  30  11 NW7       29.85S
SPOKANE        CLOUDY    80  43  26 W20G28    29.74S
$$

REGIONAL REPORTS...ALBERTA

CITY           SKY/WX    TMP DP  RH WIND       PRES   REMARKS
EDMONTON       LGT RAIN  59  55  88 SW5       29.62S
CALGARY        MOSUNNY   59  46  63 N24G30    29.71R
LETHBRIDGE     PTSUNNY   77  45  31 W13G24    29.65R
MEDICINE HAT   PTSUNNY   77  46  33 SW12      29.59S
$$

REGIONAL REPORTS...SASKATCHEWAN

CITY           SKY/WX    TMP DP  RH WIND       PRES   REMARKS
SWIFT CURRENT  MOCLDY    75  48  38 S10       29.64S
REGINA         MOCLDY    72  45  37 SE12      29.73F
SASKATOON      MOCLDY    73  52  46 SE17G25   29.63S
$$




USA.gov is the U.S. government's official web portal to all federal, state and local government web resources and services.